Home   Weather   Bridgetown   Past weeks

Flag for Barbados Past Weather in Bridgetown, Barbados — Yesterday and Last 2 Weeks

Now
81 °F

Passing clouds.


Feels Like: 87 °F
Forecast: 81 / 86 °F
Wind: 15 mph from East

Location: Grantley Adams

Current Time: Jul 23, 2017 at 3:00:37 am

Latest Report: Jul 23, 2017 at 2:00 am


Visibility: N/A

Pressure: 29.95 "Hg

Humidity: 89%

Dew Point: 77 °F

Location of BridgetownLocation

Past Weather in Bridgetown — Graph

°F

Bridgetown Temperature Yesterday

Maximum temperature yesterday: 88 °F (at 11:00 am)
Minimum temperature yesterday: 81 °F (at 12:00 am)
Average temperature yesterday: 83 °F

High & Low Weather Summary for the Past Weeks

 TemperatureHumidityPressure
High88 °F (Jul 9, 1:00 pm)94% (Jul 12, 5:00 am)30.04 "Hg (Jul 12, 5:00 am)
Low77 °F (Jul 13, 9:00 pm)66% (Jul 16, 11:00 am)29.89 "Hg (Jul 10, 4:00 pm)
Average83 °F81%29.97 "Hg
* Reported Jul 8 1:00 am — Jul 23 1:00 am, Bridgetown. Weather by CustomWeather, © 2017

Note: Actual official high and low records may vary slightly from our data, if they occured in-between our weather recording intervals... More about our weather records

Advertising

Bridgetown Weather History for the Previous 24 Hours

Scroll right to see more
 ConditionsComfort  
Time TempWeatherWind HumidityBarometerVisibility
1:00 am
Sun, Jul 23
82 °FPassing clouds.17 mph84%29.95 "HgN/A
12:00 am82 °FPassing clouds.16 mph84%29.98 "HgN/A
11:00 pm
Sat, Jul 22
82 °FPassing clouds.20 mph79%30.01 "HgN/A
10:00 pm81 °FSprinkles. Passing clouds.14 mph94%30.01 "HgN/A
9:00 pm82 °FScattered showers. Passing clouds.15 mph89%30.01 "HgN/A
8:00 pm81 °FSprinkles. Passing clouds.12 mph94%29.98 "HgN/A
7:00 pm81 °FSprinkles. Passing clouds.9 mph89%29.95 "HgN/A
6:00 pm84 °FScattered clouds.12 mph79%29.95 "HgN/A
5:00 pm88 °FPassing clouds.13 mph70%29.92 "HgN/A
4:00 pm88 °FPassing clouds.14 mph75%29.92 "HgN/A
3:00 pm86 °FScattered clouds.15 mph79%29.95 "HgN/A
2:00 pm88 °FScattered clouds.15 mph75%29.95 "HgN/A
1:00 pm86 °FScattered clouds.14 mph79%29.98 "HgN/A
12:00 pm86 °FBroken clouds.14 mph75%29.98 "HgN/A
11:00 am88 °FScattered clouds.14 mph70%30.01 "HgN/A
10:00 am86 °FScattered clouds.13 mph79%30.01 "HgN/A
9:00 am86 °FPartly sunny.13 mph79%30.01 "HgN/A
8:00 am84 °FScattered clouds.12 mph79%30.01 "HgN/A
7:00 am82 °FPassing clouds.10 mph79%29.98 "HgN/A
6:00 am81 °FPassing clouds.9 mph89%29.95 "HgN/A
5:00 am81 °FPassing clouds.12 mph84%29.95 "HgN/A
4:00 am81 °FPassing clouds.10 mph84%29.95 "HgN/A
3:00 am81 °FPassing clouds.7 mph89%29.95 "HgN/A
Weather by CustomWeather, © 2017

See weather overviewHow to use our weather pages